FREGAT DEB, 45829

Orbit data source: Space-Track

FREGAT DEB, 45829 is space debris in LEO originally from a launch on Mon, 18 Jul 2011 UTC launched from the Tyuratam Missile And Space Complex (TTMTR). Debris objects in space refer to the collection of defunct objects orbiting the Earth. Examples of debris include non-operational satellites, rocket bodies, and fragments generated from explosions, collisions, or faulty payload assembly.

Loading next visibility...
Identifier
45829, 2011-037BP
Orbit
LEO
Country
Flag of CISCIS
Related business
Manufacturer
Lavochkin
Mission
Spacecraft
Bus & Motor
Unknown
Mass
Unknown
Launch date (UTC)
2011-07-18 (14 years ago)
Launch vehicle
Unknown
Launch site
Tyuratam Missile And Space Complex (TTMTR)
Object type
Payload
Rocket body
Debris
Shape & HBR
Unknown shape, 0.1 m
Radar Cross Section
Small (<0.1 m²)

Expand to show TLE details & history
Last TLE update: 8 hours ago

TLE from 8 hours ago
0 FREGAT DEB
1 45829U 11037BP  25318.64554220  .00046972  00000-0  32895-2 0  9994
2 45829  51.4188 184.7413 1324124 316.4713  33.8733 12.69984770235535
Epoch: 2025-11-14T15:29Z
TLE epoch observation values (Epoch: 2025-11-14T15:29:34.846Z)
Latitude
-0.00002°
Longitude
-101.63997°
Altitude
579.775 km
Speed
7.953 km/s
True Right ascension
12h 18m 57s
True Declination
0° 00' 00"
Sunlit
Object was in daylight at epoch
Visualization orbit readout
Latitude
Unknown
Longitude
Unknown
Altitude
Unknown
Speed
Unknown
Apparent Right ascension
Unknown
Apparent Declination
Unknown
Sunlit
N/A
Visualization observer readout
Local Sidereal Time
19:39:01
Azimuth
Unknown
Elevation
Unknown
Doppler factor
Unknown
Orbital elements
Apogee altitude
2,410.096 km
Perigee altitude
354.889 km
Semi-major axis
7,760.63 km
Eccentricity
0.13241
Inclination
51.4188°
RAAN
184.7413°
Arg. of periapsis
316.4713°
True anomaly
43.6195°
Mean anomaly
33.8733°
Eccentric anomaly
38.60722°
Mean motion
3.17466 °/min
Orbital period
113.4 mins
BSTAR
0.0032895
Loading maneuver chart data...
Computing Atmospheric mass density...
Loading historical data...
Loading historical data...
Loading historical data...
Loading historical data...
Loading historical data...
Loading historical data...
Loading historical data...

Documentation

Showing up to 5 results
|